Dades meteomassalio
Diari Summary for Juny 21, 2017 Units:  Metric    English   Both
« Previous Day
Next Day »
Diari Semanal Mensual Anual Personalitzat
  Maxima: Minima: Mijana:
Temperatura: 36.6 °C 18.9 °C 28.4 °C
Rosada: 17.3 °C 12.3 °C 14.8 °C
Humitat: 69 % 24 % 46 %
Velocitat del vent: 27.8 km/h 0.0 km/h 4.7 km/h
Racha vent: 27.8 km/h - -
Vent:- - SSE
Pressio: 1016.1 hPa 1012.4 hPa -
Pluja: 0.0 mm    
Historical Graphs
 
 
Tabular Data for Juny 21, 2017
Time Temperature Dew Point Pressure Wind Wind Speed Wind Gust Humidity Rainfall Rate (Hourly) solar Conditions
00:04 24.9 °C 15.5 °C 1015.8 hPa Calm     56 % 0.0 mm 0.0 W/m2 CLR
00:09 24.9 °C 15.3 °C 1015.8 hPa Calm     55 % 0.0 mm 0.0 W/m2 CLR
00:14 25.0 °C 15.3 °C 1015.8 hPa Calm     55 % 0.0 mm 0.0 W/m2 CLR
00:19 24.7 °C 15.0 °C 1015.8 hPa Calm     55 % 0.0 mm 0.0 W/m2 CLR
00:24 24.3 °C 15.3 °C 1016.1 hPa Calm     57 % 0.0 mm 0.0 W/m2 CLR
00:29 24.2 °C 15.2 °C 1016.1 hPa Calm     57 % 0.0 mm 0.0 W/m2 CLR
00:34 24.2 °C 15.4 °C 1016.1 hPa Calm     58 % 0.0 mm 0.0 W/m2 CLR
00:39 24.1 °C 15.3 °C 1016.1 hPa Calm     58 % 0.0 mm 0.0 W/m2 CLR
00:44 23.9 °C 15.4 °C 1016.1 hPa Calm     59 % 0.0 mm 0.0 W/m2 CLR
00:49 23.9 °C 15.4 °C 1015.8 hPa Calm     59 % 0.0 mm 0.0 W/m2 CLR
00:54 23.9 °C 14.9 °C 1015.8 hPa Calm     57 % 0.0 mm 0.0 W/m2 CLR
00:59 24.1 °C 15.1 °C 1015.8 hPa Calm     57 % 0.0 mm 0.0 W/m2 CLR
01:04 24.2 °C 15.1 °C 1015.8 hPa Calm     57 % 0.0 mm 0.0 W/m2 CLR
01:09 24.2 °C 15.4 °C 1015.8 hPa Calm     58 % 0.0 mm 0.0 W/m2 CLR
01:14 24.3 °C 15.2 °C 1015.8 hPa Calm     57 % 0.0 mm 0.0 W/m2 CLR
01:19 24.3 °C 15.5 °C 1015.8 hPa Calm     58 % 0.0 mm 0.0 W/m2 CLR
01:24 24.2 °C 15.4 °C 1015.8 hPa Calm     58 % 0.0 mm 0.0 W/m2 CLR
01:29 24.1 °C 15.6 °C 1015.8 hPa Calm     59 % 0.0 mm 0.0 W/m2 CLR
01:34 24.0 °C 15.5 °C 1015.8 hPa Calm     59 % 0.0 mm 0.0 W/m2 CLR
01:39 23.9 °C 15.7 °C 1015.5 hPa Calm     60 % 0.0 mm 0.0 W/m2 CLR
01:44 23.9 °C 15.7 °C 1015.5 hPa Calm     60 % 0.0 mm 0.0 W/m2 CLR
01:49 23.8 °C 15.3 °C 1015.5 hPa Calm     59 % 0.0 mm 0.0 W/m2 CLR
01:54 23.7 °C 15.2 °C 1015.5 hPa Calm     59 % 0.0 mm 0.0 W/m2 CLR
02:04 23.5 °C 15.3 °C 1015.5 hPa Calm     60 % 0.0 mm 0.0 W/m2 CLR
02:09 23.3 °C 15.4 °C 1015.5 hPa Calm     61 % 0.0 mm 0.0 W/m2 CLR
02:14 23.2 °C 15.3 °C 1015.5 hPa Calm     61 % 0.0 mm 0.0 W/m2 CLR
02:19 23.2 °C 15.2 °C 1015.5 hPa Calm     61 % 0.0 mm 0.0 W/m2 CLR
02:24 23.0 °C 15.1 °C 1015.5 hPa Calm     61 % 0.0 mm 0.0 W/m2 CLR
02:29 22.9 °C 15.0 °C 1015.5 hPa Calm     61 % 0.0 mm 0.0 W/m2 CLR
02:34 22.8 °C 14.9 °C 1015.5 hPa Calm     61 % 0.0 mm 0.0 W/m2 CLR
02:39 22.8 °C 15.1 °C 1015.5 hPa Calm     62 % 0.0 mm 0.0 W/m2 CLR
02:45 22.7 °C 14.8 °C 1015.1 hPa Calm     61 % 0.0 mm 0.0 W/m2 CLR
02:50 22.6 °C 14.7 °C 1015.1 hPa Calm     61 % 0.0 mm 0.0 W/m2 CLR
02:55 22.4 °C 14.7 °C 1015.1 hPa Calm     62 % 0.0 mm 0.0 W/m2 CLR
03:00 22.2 °C 14.8 °C 1015.1 hPa Calm     63 % 0.0 mm 0.0 W/m2 CLR
03:05 22.1 °C 14.9 °C 1015.1 hPa Calm     64 % 0.0 mm 0.0 W/m2 CLR
03:10 22.0 °C 14.6 °C 1015.1 hPa Calm     63 % 0.0 mm 0.0 W/m2 CLR
03:15 21.9 °C 14.5 °C 1015.1 hPa Calm     63 % 0.0 mm 0.0 W/m2 CLR
03:20 21.7 °C 14.6 °C 1015.1 hPa Calm     64 % 0.0 mm 0.0 W/m2 CLR
03:25 21.6 °C 14.4 °C 1015.1 hPa Calm     64 % 0.0 mm 0.0 W/m2 CLR
03:30 21.5 °C 14.7 °C 1015.1 hPa Calm     65 % 0.0 mm 0.0 W/m2 CLR
03:35 21.4 °C 14.3 °C 1015.1 hPa Calm     64 % 0.0 mm 0.0 W/m2 CLR
03:40 21.3 °C 14.5 °C 1014.8 hPa Calm     65 % 0.0 mm 0.0 W/m2 CLR
03:45 21.1 °C 14.4 °C 1014.8 hPa Calm     66 % 0.0 mm 0.0 W/m2 CLR
03:50 20.9 °C 14.3 °C 1014.8 hPa Calm     66 % 0.0 mm 0.0 W/m2 CLR
03:55 20.9 °C 14.3 °C 1014.8 hPa Calm     66 % 0.0 mm 0.0 W/m2 CLR
04:00 20.9 °C 14.3 °C 1014.8 hPa Calm     66 % 0.0 mm 0.0 W/m2 CLR
04:05 20.8 °C 14.2 °C 1014.4 hPa Calm     66 % 0.0 mm 0.0 W/m2 CLR
04:10 20.8 °C 14.2 °C 1014.4 hPa Calm     66 % 0.0 mm 0.0 W/m2 CLR
04:15 20.6 °C 14.2 °C 1014.8 hPa Calm     67 % 0.0 mm 0.0 W/m2 CLR
04:20 20.6 °C 14.3 °C 1014.8 hPa Calm     67 % 0.0 mm 0.0 W/m2 CLR
04:25 20.6 °C 14.5 °C 1014.8 hPa Calm     68 % 0.0 mm 0.0 W/m2 CLR
04:30 20.6 °C 14.2 °C 1014.8 hPa Calm     67 % 0.0 mm 0.0 W/m2 CLR
04:35 20.5 °C 13.9 °C 1014.8 hPa Calm     66 % 0.0 mm 0.0 W/m2 CLR
04:36 20.5 °C 13.9 °C 1014.8 hPa Calm     66 % 0.0 mm 0.0 W/m2 CLR
04:41 20.4 °C 13.9 °C 1014.8 hPa Calm     66 % 0.0 mm 0.0 W/m2 CLR
04:46 20.3 °C 13.8 °C 1014.8 hPa Calm     66 % 0.0 mm 0.0 W/m2 CLR
04:51 20.2 °C 13.6 °C 1014.8 hPa Calm     66 % 0.0 mm 0.0 W/m2 CLR
04:56 20.1 °C 13.5 °C 1014.8 hPa Calm     66 % 0.0 mm 0.0 W/m2 CLR
05:01 19.9 °C 13.4 °C 1014.8 hPa Calm     66 % 0.0 mm 0.0 W/m2 CLR
05:06 19.9 °C 13.6 °C 1014.8 hPa Calm     67 % 0.0 mm 0.0 W/m2 CLR
05:11 19.9 °C 13.3 °C 1014.8 hPa Calm     66 % 0.0 mm 0.0 W/m2 CLR
05:16 19.8 °C 13.3 °C 1014.8 hPa Calm     66 % 0.0 mm 0.0 W/m2 CLR
05:21 19.7 °C 13.2 °C 1014.8 hPa Calm     66 % 0.0 mm 0.0 W/m2 CLR
05:26 19.7 °C 13.1 °C 1015.1 hPa Calm     66 % 0.0 mm 0.0 W/m2 CLR
05:31 19.6 °C 13.3 °C 1015.1 hPa Calm     67 % 0.0 mm 0.0 W/m2 CLR
05:36 19.6 °C 13.1 °C 1015.1 hPa Calm     66 % 0.0 mm 0.0 W/m2 CLR
05:41 19.5 °C 13.0 °C 1015.1 hPa Calm     66 % 0.0 mm 0.0 W/m2 CLR
05:46 19.6 °C 13.1 °C 1015.1 hPa Calm     66 % 0.0 mm 0.0 W/m2 CLR
05:51 19.5 °C 13.0 °C 1015.1 hPa Calm     66 % 0.0 mm 0.0 W/m2 CLR
05:56 19.4 °C 13.1 °C 1015.1 hPa Calm     67 % 0.0 mm 0.0 W/m2 CLR
06:01 19.3 °C 13.1 °C 1015.1 hPa Calm     67 % 0.0 mm 0.0 W/m2 CLR
06:06 19.3 °C 13.0 °C 1015.1 hPa Calm     67 % 0.0 mm 0.0 W/m2 CLR
06:08 19.3 °C 13.0 °C 1015.1 hPa Calm     67 % 0.0 mm 0.0 W/m2 CLR
06:13 19.2 °C 12.9 °C 1015.1 hPa Calm     67 % 0.0 mm 0.0 W/m2 CLR
06:18 19.1 °C 13.1 °C 1015.1 hPa Calm     68 % 0.0 mm 0.0 W/m2 OVC
06:23 19.1 °C 13.0 °C 1015.1 hPa Calm     68 % 0.0 mm 0.0 W/m2 OVC
06:28 19.1 °C 12.8 °C 1015.1 hPa Calm     67 % 0.0 mm 5.0 W/m2 OVC
06:33 19.1 °C 12.8 °C 1015.1 hPa Calm     67 % 0.0 mm 7.0 W/m2 BKN
06:38 19.1 °C 13.0 °C 1015.1 hPa Calm     68 % 0.0 mm 11.0 W/m2 BKN
06:43 19.0 °C 12.9 °C 1015.1 hPa Calm     68 % 0.0 mm 12.0 W/m2 BKN
06:48 18.9 °C 12.9 °C 1015.5 hPa Calm     68 % 0.0 mm 16.0 W/m2 BKN
06:53 18.9 °C 12.9 °C 1015.5 hPa Calm     68 % 0.0 mm 19.0 W/m2 BKN
06:58 18.9 °C 12.9 °C 1015.5 hPa Calm     68 % 0.0 mm 21.0 W/m2 BKN
07:03 19.0 °C 13.2 °C 1015.5 hPa Calm     69 % 0.0 mm 26.0 W/m2 BKN
07:08 19.0 °C 12.9 °C 1015.5 hPa Calm     68 % 0.0 mm 39.0 W/m2 BKN
07:13 19.1 °C 13.2 °C 1015.5 hPa Calm     69 % 0.0 mm 47.0 W/m2 SCT
07:18 19.3 °C 13.2 °C 1015.5 hPa Calm     68 % 0.0 mm 56.0 W/m2 SCT
07:23 19.5 °C 13.4 °C 1015.5 hPa Calm     68 % 0.0 mm 67.0 W/m2 FEW
07:28 19.7 °C 13.4 °C 1015.5 hPa Calm     67 % 0.0 mm 81.0 W/m2 FEW
07:33 20.1 °C 13.7 °C 1015.5 hPa Calm     67 % 0.0 mm 93.0 W/m2 FEW
07:38 20.3 °C 13.5 °C 1015.5 hPa Calm     65 % 0.0 mm 105.0 W/m2 CLR
07:43 20.6 °C 13.7 °C 1015.5 hPa Calm     65 % 0.0 mm 120.0 W/m2 CLR
07:48 20.9 °C 13.9 °C 1015.5 hPa Calm     64 % 0.0 mm 141.0 W/m2 CLR
07:53 21.3 °C 14.0 °C 1015.5 hPa Calm     63 % 0.0 mm 156.0 W/m2 CLR
07:58 21.7 °C 14.4 °C 1015.5 hPa Calm     63 % 0.0 mm 172.0 W/m2 CLR
08:03 22.2 °C 14.1 °C 1015.5 hPa Calm     60 % 0.0 mm 190.0 W/m2 CLR
08:08 22.7 °C 14.8 °C 1015.5 hPa Calm     61 % 0.0 mm 204.0 W/m2 CLR
08:13 23.2 °C 15.0 °C 1015.5 hPa Calm     60 % 0.0 mm 220.0 W/m2 CLR
08:18 23.7 °C 15.2 °C 1015.5 hPa Calm     59 % 0.0 mm 236.0 W/m2 CLR
08:23 23.9 °C 15.2 °C 1015.5 hPa Calm     58 % 0.0 mm 248.0 W/m2 CLR
08:28 24.2 °C 15.2 °C 1015.5 hPa Calm     57 % 0.0 mm 260.0 W/m2 CLR
08:33 24.3 °C 14.7 °C 1015.5 hPa Calm     55 % 0.0 mm 276.0 W/m2 CLR
08:38 24.3 °C 14.7 °C 1015.5 hPa Calm     55 % 0.0 mm 292.0 W/m2 CLR
08:43 24.5 °C 14.9 °C 1015.5 hPa Calm     55 % 0.0 mm 309.0 W/m2 CLR
08:48 24.8 °C 14.9 °C 1015.5 hPa Calm     54 % 0.0 mm 330.0 W/m2 CLR
08:53 25.2 °C 14.9 °C 1015.5 hPa Calm     53 % 0.0 mm 362.0 W/m2 CLR
08:58 25.6 °C 14.9 °C 1015.5 hPa Calm     52 % 0.0 mm 378.0 W/m2 CLR
09:03 25.9 °C 15.3 °C 1015.5 hPa Calm     52 % 0.0 mm 392.0 W/m2 CLR
09:08 26.3 °C 15.4 °C 1015.5 hPa Calm     51 % 0.0 mm 399.0 W/m2 CLR
09:14 26.7 °C 15.4 °C 1015.5 hPa Calm     50 % 0.0 mm 404.0 W/m2 CLR
09:19 26.7 °C 15.4 °C 1015.5 hPa Calm     50 % 0.0 mm 411.0 W/m2 CLR
09:24 26.7 °C 15.4 °C 1015.5 hPa Calm     50 % 0.0 mm 424.0 W/m2 CLR
09:29 26.8 °C 15.5 °C 1015.5 hPa Calm     50 % 0.0 mm 439.0 W/m2 CLR
09:34 27.0 °C 15.7 °C 1015.5 hPa Calm     50 % 0.0 mm 452.0 W/m2 CLR
09:39 27.3 °C 15.9 °C 1015.5 hPa Calm     50 % 0.0 mm 466.0 W/m2 CLR
09:44 27.4 °C 16.1 °C 1015.5 hPa Calm     50 % 0.0 mm 480.0 W/m2 CLR
09:49 27.5 °C 16.2 °C 1015.5 hPa Calm     50 % 0.0 mm 492.0 W/m2 CLR
09:54 27.7 °C 16.1 °C 1015.5 hPa Calm     49 % 0.0 mm 508.0 W/m2 CLR
09:59 27.9 °C 16.2 °C 1015.5 hPa Calm     49 % 0.0 mm 524.0 W/m2 CLR
10:04 28.2 °C 15.8 °C 1015.5 hPa NNW 9.3 km/h 9.3 km/h 47 % 0.0 mm 538.0 W/m2 CLR
10:09 28.4 °C 15.7 °C 1015.8 hPa NW 5.6 km/h   46 % 0.0 mm 552.0 W/m2 CLR
10:14 28.5 °C 15.4 °C 1015.8 hPa Calm     45 % 0.0 mm 566.0 W/m2 CLR
10:19 28.6 °C 15.8 °C 1015.8 hPa NW 5.6 km/h 5.6 km/h 46 % 0.0 mm 580.0 W/m2 CLR
10:24 28.7 °C 15.9 °C 1015.8 hPa Calm     46 % 0.0 mm 592.0 W/m2 CLR
10:29 28.8 °C 15.7 °C 1015.8 hPa WNW 1.9 km/h   45 % 0.0 mm 605.0 W/m2 CLR
10:34 29.1 °C 15.9 °C 1015.8 hPa NW 9.3 km/h 9.3 km/h 45 % 0.0 mm 621.0 W/m2 CLR
10:39 29.1 °C 16.3 °C 1015.8 hPa Calm     46 % 0.0 mm 631.0 W/m2 CLR
10:44 29.2 °C 15.7 °C 1015.5 hPa NW 13.0 km/h 13.0 km/h 44 % 0.0 mm 647.0 W/m2 CLR
10:49 29.2 °C 15.7 °C 1015.8 hPa NW 8.0 km/h 8.0 km/h 44 % 0.0 mm 657.0 W/m2 CLR
10:54 29.3 °C 16.2 °C 1015.8 hPa NNE 11.1 km/h 11.1 km/h 45 % 0.0 mm 673.0 W/m2 CLR
10:59 29.6 °C 16.0 °C 1015.8 hPa WNW 9.3 km/h 9.3 km/h 44 % 0.0 mm 686.0 W/m2 CLR
11:04 29.8 °C 15.9 °C 1015.5 hPa NW 9.3 km/h 9.3 km/h 43 % 0.0 mm 694.0 W/m2 CLR
11:09 29.9 °C 16.0 °C 1015.8 hPa NNW 13.0 km/h 13.0 km/h 43 % 0.0 mm 705.0 W/m2 CLR
11:14 29.8 °C 16.6 °C 1015.8 hPa North 5.6 km/h 5.6 km/h 45 % 0.0 mm 715.0 W/m2 CLR
11:19 30.1 °C 16.8 °C 1015.8 hPa NNE 3.7 km/h 3.7 km/h 45 % 0.0 mm 728.0 W/m2 CLR
11:24 30.2 °C 16.6 °C 1015.8 hPa WNW 1.9 km/h 1.9 km/h 44 % 0.0 mm 742.0 W/m2 CLR
11:29 30.3 °C 17.1 °C 1015.8 hPa Calm     45 % 0.0 mm 747.0 W/m2 CLR
11:34 30.6 °C 16.2 °C 1015.8 hPa NNW 16.7 km/h 16.7 km/h 42 % 0.0 mm 759.0 W/m2 CLR
11:39 30.6 °C 16.2 °C 1015.8 hPa NNE 9.3 km/h 9.3 km/h 42 % 0.0 mm 772.0 W/m2 CLR
11:44 30.7 °C 16.7 °C 1015.8 hPa WNW 11.1 km/h 11.1 km/h 43 % 0.0 mm 782.0 W/m2 CLR
11:49 30.6 °C 16.2 °C 1015.8 hPa Calm     42 % 0.0 mm 788.0 W/m2 CLR
11:54 30.9 °C 16.5 °C 1015.8 hPa Calm     42 % 0.0 mm 796.0 W/m2 CLR
11:59 31.1 °C 16.7 °C 1015.8 hPa West 7.4 km/h 7.4 km/h 42 % 0.0 mm 807.0 W/m2 CLR
12:04 31.1 °C 17.1 °C 1015.8 hPa North 5.6 km/h 5.6 km/h 43 % 0.0 mm 816.0 W/m2 CLR
12:09 31.3 °C 17.3 °C 1015.8 hPa Calm     43 % 0.0 mm 824.0 W/m2 CLR
12:14 31.6 °C 16.8 °C 1015.8 hPa NNE 1.9 km/h 1.9 km/h 41 % 0.0 mm 835.0 W/m2 CLR
12:16 31.7 °C 16.8 °C 1015.8 hPa Calm     41 % 0.0 mm 837.0 W/m2 CLR
12:21 31.8 °C 16.9 °C 1015.8 hPa NNE 9.3 km/h 9.3 km/h 41 % 0.0 mm 846.0 W/m2 CLR
12:26 31.7 °C 16.1 °C 1015.5 hPa North 11.1 km/h 11.1 km/h 39 % 0.0 mm 856.0 W/m2 CLR
12:31 31.4 °C 16.6 °C 1015.5 hPa NNW 1.9 km/h   41 % 0.0 mm 860.0 W/m2 CLR
12:36 31.8 °C 16.9 °C 1015.5 hPa ENE 8.0 km/h 8.0 km/h 41 % 0.0 mm 865.0 W/m2 CLR
12:37 31.9 °C 16.6 °C 1015.5 hPa East 7.4 km/h 7.4 km/h 40 % 0.0 mm 865.0 W/m2 CLR
12:42 31.7 °C 16.4 °C 1015.5 hPa SE 5.6 km/h 5.6 km/h 40 % 0.0 mm 872.0 W/m2 CLR
12:47 31.7 °C 16.4 °C 1015.5 hPa ENE 3.7 km/h 3.7 km/h 40 % 0.0 mm 881.0 W/m2 CLR
12:52 32.0 °C 16.3 °C 1015.5 hPa East 7.4 km/h 7.4 km/h 39 % 0.0 mm 888.0 W/m2 CLR
12:57 32.3 °C 16.6 °C 1015.5 hPa NE 9.3 km/h 9.3 km/h 39 % 0.0 mm 893.0 W/m2 CLR
13:02 32.6 °C 16.4 °C 1015.5 hPa Calm   0.2 km/h 38 % 0.0 mm 895.0 W/m2 CLR
13:07 32.8 °C 16.2 °C 1015.5 hPa East 6.4 km/h 6.4 km/h 37 % 0.0 mm 900.0 W/m2 CLR
13:12 32.9 °C 15.9 °C 1015.1 hPa NNE 8.0 km/h 8.0 km/h 36 % 0.0 mm 905.0 W/m2 CLR
13:17 33.1 °C 15.6 °C 1015.1 hPa ENE 3.7 km/h 3.7 km/h 35 % 0.0 mm 911.0 W/m2 CLR
13:22 33.3 °C 15.3 °C 1015.1 hPa Calm     34 % 0.0 mm 911.0 W/m2 CLR
13:27 33.3 °C 15.3 °C 1015.1 hPa ESE 11.1 km/h 11.1 km/h 34 % 0.0 mm 916.0 W/m2 CLR
13:32 33.4 °C 15.4 °C 1015.1 hPa ENE 1.9 km/h 1.9 km/h 34 % 0.0 mm 918.0 W/m2 CLR
13:37 33.3 °C 14.9 °C 1015.1 hPa Calm   0.2 km/h 33 % 0.0 mm 921.0 W/m2 CLR
13:38 33.3 °C 15.3 °C 1015.1 hPa North 1.9 km/h   34 % 0.0 mm 921.0 W/m2 CLR
13:43 33.7 °C 15.2 °C 1014.8 hPa ESE 3.7 km/h 3.7 km/h 33 % 0.0 mm 921.0 W/m2 CLR
13:48 33.3 °C 14.9 °C 1014.8 hPa South 5.6 km/h   33 % 0.0 mm 925.0 W/m2 CLR
13:53 33.4 °C 15.4 °C 1014.8 hPa ESE 9.7 km/h 9.7 km/h 34 % 0.0 mm 926.0 W/m2 CLR
13:58 33.7 °C 15.6 °C 1014.4 hPa NE 11.3 km/h 11.3 km/h 34 % 0.0 mm 925.0 W/m2 CLR
14:03 34.0 °C 15.0 °C 1014.4 hPa NNE 7.4 km/h 7.4 km/h 32 % 0.0 mm 926.0 W/m2 CLR
14:08 34.2 °C 15.1 °C 1014.4 hPa Calm     32 % 0.0 mm 928.0 W/m2 CLR
14:13 34.3 °C 15.2 °C 1014.1 hPa Calm     32 % 0.0 mm 928.0 W/m2 CLR
14:18 34.6 °C 15.5 °C 1014.1 hPa Calm     32 % 0.0 mm 928.0 W/m2 CLR
14:23 35.1 °C 15.9 °C 1014.1 hPa Calm     32 % 0.0 mm 926.0 W/m2 CLR
14:29 35.6 °C 15.4 °C 1014.1 hPa NNE 5.6 km/h   30 % 0.0 mm 925.0 W/m2 CLR
14:34 35.4 °C 15.2 °C 1013.8 hPa NNE 7.4 km/h 7.4 km/h 30 % 0.0 mm 925.0 W/m2 CLR
14:39 35.7 °C 15.4 °C 1013.8 hPa ENE 16.7 km/h 16.7 km/h 30 % 0.0 mm 921.0 W/m2 CLR
14:44 35.4 °C 14.7 °C 1013.8 hPa NNW 16.7 km/h 16.7 km/h 29 % 0.0 mm 919.0 W/m2 CLR
14:49 35.2 °C 14.5 °C 1013.8 hPa NNW 7.4 km/h 7.4 km/h 29 % 0.0 mm 914.0 W/m2 CLR
14:54 35.1 °C 14.9 °C 1013.8 hPa ESE 1.6 km/h   30 % 0.0 mm 905.0 W/m2 CLR
14:59 35.4 °C 15.2 °C 1013.4 hPa ENE 3.2 km/h 5.0 km/h 30 % 0.0 mm 904.0 W/m2 CLR
15:04 35.3 °C 14.6 °C 1013.4 hPa NNW 11.1 km/h 11.1 km/h 29 % 0.0 mm 900.0 W/m2 CLR
15:09 35.0 °C 14.8 °C 1013.4 hPa WNW 14.8 km/h 14.8 km/h 30 % 0.0 mm 900.0 W/m2 CLR
15:14 34.9 °C 14.8 °C 1013.1 hPa East 4.8 km/h 4.8 km/h 30 % 0.0 mm 891.0 W/m2 CLR
15:19 35.3 °C 15.1 °C 1013.1 hPa ENE 13.0 km/h 13.0 km/h 30 % 0.0 mm 882.0 W/m2 CLR
15:24 35.4 °C 14.7 °C 1013.1 hPa NE 11.1 km/h 11.1 km/h 29 % 0.0 mm 879.0 W/m2 CLR
15:29 35.6 °C 14.3 °C 1013.1 hPa West 1.6 km/h 1.6 km/h 28 % 0.0 mm 870.0 W/m2 CLR
15:34 35.7 °C 14.9 °C 1013.1 hPa NW 11.3 km/h 11.3 km/h 29 % 0.0 mm 868.0 W/m2 CLR
15:39 35.4 °C 14.7 °C 1013.1 hPa Calm     29 % 0.0 mm 870.0 W/m2 CLR
15:44 35.7 °C 14.9 °C 1012.8 hPa NE 11.3 km/h 11.3 km/h 29 % 0.0 mm 861.0 W/m2 CLR
15:49 35.9 °C 14.0 °C 1012.8 hPa North 16.7 km/h 16.7 km/h 27 % 0.0 mm 846.0 W/m2 CLR
15:54 35.9 °C 13.9 °C 1012.8 hPa East 18.5 km/h 18.5 km/h 27 % 0.0 mm 846.0 W/m2 CLR
15:59 36.0 °C 13.5 °C 1012.8 hPa SE 18.5 km/h 18.5 km/h 26 % 0.0 mm 837.0 W/m2 CLR
16:04 35.6 °C 13.2 °C 1012.8 hPa SE 14.8 km/h 14.8 km/h 26 % 0.0 mm 838.0 W/m2 CLR
16:09 35.6 °C 13.2 °C 1012.8 hPa SSE 9.3 km/h 9.3 km/h 26 % 0.0 mm 821.0 W/m2 CLR
16:14 35.6 °C 13.1 °C 1012.8 hPa Calm     26 % 0.0 mm 803.0 W/m2 CLR
16:19 35.8 °C 13.3 °C 1012.8 hPa NNE 9.3 km/h 9.3 km/h 26 % 0.0 mm 816.0 W/m2 CLR
16:24 36.2 °C 13.0 °C 1012.8 hPa NNW 16.7 km/h 16.7 km/h 25 % 0.0 mm 809.0 W/m2 CLR
16:29 35.8 °C 12.7 °C 1012.8 hPa North 4.8 km/h 4.8 km/h 25 % 0.0 mm 134.0 W/m2 CLR
16:34 35.6 °C 13.2 °C 1012.8 hPa North 5.6 km/h 5.6 km/h 26 % 0.0 mm 788.0 W/m2 CLR
16:39 35.9 °C 13.4 °C 1012.8 hPa NW 1.9 km/h   26 % 0.0 mm 775.0 W/m2 CLR
16:44 36.4 °C 13.2 °C 1012.8 hPa NNE 3.7 km/h 3.7 km/h 25 % 0.0 mm 765.0 W/m2 CLR
16:49 36.6 °C 13.9 °C 1012.8 hPa ESE 7.4 km/h 7.4 km/h 26 % 0.0 mm 752.0 W/m2 CLR
16:54 36.2 °C 13.6 °C 1012.4 hPa SE 9.7 km/h 9.7 km/h 26 % 0.0 mm 751.0 W/m2 CLR
16:55 36.2 °C 13.6 °C 1012.4 hPa SE 9.3 km/h 9.3 km/h 26 % 0.0 mm 745.0 W/m2 CLR
17:00 36.1 °C 14.2 °C 1012.4 hPa ESE 11.3 km/h 11.3 km/h 27 % 0.0 mm 731.0 W/m2 CLR
17:05 36.0 °C 12.3 °C 1012.4 hPa ESE 13.0 km/h 13.0 km/h 24 % 0.0 mm 737.0 W/m2 CLR
17:10 36.1 °C 12.9 °C 1012.4 hPa ESE 13.0 km/h 13.0 km/h 25 % 0.0 mm 735.0 W/m2 CLR
17:11 36.1 °C 12.3 °C 1012.4 hPa SSW 9.3 km/h 9.3 km/h 24 % 0.0 mm 738.0 W/m2 CLR
17:16 36.5 °C 12.7 °C 1012.4 hPa Calm     24 % 0.0 mm 717.0 W/m2 CLR
17:21 36.4 °C 15.5 °C 1012.4 hPa ESE 13.0 km/h 13.0 km/h 29 % 0.0 mm 717.0 W/m2 CLR
17:26 35.9 °C 15.6 °C 1012.4 hPa ESE 14.8 km/h 14.8 km/h 30 % 0.0 mm 664.0 W/m2 CLR
17:31 35.7 °C 15.4 °C 1012.4 hPa ESE 25.9 km/h 25.9 km/h 30 % 0.0 mm 654.0 W/m2 CLR
17:36 35.4 °C 15.2 °C 1012.4 hPa ENE 18.5 km/h 18.5 km/h 30 % 0.0 mm 628.0 W/m2 CLR
17:41 35.4 °C 15.7 °C 1012.8 hPa SE 14.5 km/h 15.0 km/h 31 % 0.0 mm 621.0 W/m2 CLR
17:46 35.0 °C 15.3 °C 1012.4 hPa ESE 20.4 km/h 20.4 km/h 31 % 0.0 mm 98.0 W/m2 CLR
17:51 34.7 °C 15.1 °C 1012.4 hPa ESE 24.1 km/h 24.1 km/h 31 % 0.0 mm 577.0 W/m2 CLR
17:56 34.9 °C 15.3 °C 1012.4 hPa East 8.0 km/h 8.0 km/h 31 % 0.0 mm 561.0 W/m2 CLR
18:01 35.2 °C 15.6 °C 1012.4 hPa East 16.1 km/h 16.1 km/h 31 % 0.0 mm 555.0 W/m2 CLR
18:06 35.2 °C 15.1 °C 1012.4 hPa ESE 22.2 km/h 22.2 km/h 30 % 0.0 mm 547.0 W/m2 CLR
18:11 35.3 °C 15.1 °C 1012.4 hPa SE 18.5 km/h 18.5 km/h 30 % 0.0 mm 522.0 W/m2 CLR
18:16 35.3 °C 15.1 °C 1012.4 hPa SE 20.4 km/h 20.4 km/h 30 % 0.0 mm 510.0 W/m2 CLR
18:21 35.3 °C 15.1 °C 1012.4 hPa East 27.8 km/h 27.8 km/h 30 % 0.0 mm 501.0 W/m2 CLR
18:26 35.2 °C 15.0 °C 1012.4 hPa East 18.5 km/h 18.5 km/h 30 % 0.0 mm 485.0 W/m2 CLR
18:31 35.2 °C 15.0 °C 1012.8 hPa ESE 18.5 km/h 18.5 km/h 30 % 0.0 mm 473.0 W/m2 CLR
18:36 35.2 °C 15.0 °C 1012.8 hPa SE 18.5 km/h 18.5 km/h 30 % 0.0 mm 462.0 W/m2 CLR
18:41 35.2 °C 15.0 °C 1012.8 hPa SE 18.5 km/h 18.5 km/h 30 % 0.0 mm 431.0 W/m2 CLR
18:46 35.1 °C 14.9 °C 1012.8 hPa SSE 14.8 km/h 14.8 km/h 30 % 0.0 mm 417.0 W/m2 CLR
18:51 35.2 °C 15.0 °C 1012.8 hPa South 11.1 km/h 11.1 km/h 30 % 0.0 mm 408.0 W/m2 CLR
18:56 35.1 °C 14.3 °C 1013.1 hPa SSW 16.7 km/h 16.7 km/h 29 % 0.0 mm 404.0 W/m2 CLR
19:01 34.9 °C 14.3 °C 1013.1 hPa SSE 17.7 km/h 17.7 km/h 29 % 0.0 mm 373.0 W/m2 CLR
19:02 34.9 °C 14.7 °C 1013.1 hPa South 17.7 km/h 17.7 km/h 30 % 0.0 mm 373.0 W/m2 CLR
19:07 34.6 °C 14.0 °C 1012.8 hPa SSW 18.5 km/h 18.5 km/h 29 % 0.0 mm 353.0 W/m2 CLR
19:12 34.5 °C 13.9 °C 1012.8 hPa SSW 20.4 km/h 20.4 km/h 29 % 0.0 mm 336.0 W/m2 CLR
19:17 34.6 °C 13.9 °C 1012.8 hPa SSW 16.7 km/h 16.7 km/h 29 % 0.0 mm 320.0 W/m2 CLR
19:22 34.4 °C 13.8 °C 1012.8 hPa SSE 16.7 km/h 16.7 km/h 29 % 0.0 mm 308.0 W/m2 CLR
19:27 34.4 °C 13.8 °C 1012.8 hPa South 22.2 km/h 22.2 km/h 29 % 0.0 mm 294.0 W/m2 CLR
19:32 34.2 °C 14.2 °C 1012.8 hPa South 16.7 km/h 16.7 km/h 30 % 0.0 mm 274.0 W/m2 CLR
19:37 34.2 °C 13.7 °C 1012.8 hPa South 18.5 km/h 18.5 km/h 29 % 0.0 mm 260.0 W/m2 CLR
19:42 34.2 °C 14.1 °C 1012.8 hPa SSW 24.1 km/h 24.1 km/h 30 % 0.0 mm 246.0 W/m2 CLR
19:47 34.1 °C 14.6 °C 1012.8 hPa South 11.3 km/h 11.3 km/h 31 % 0.0 mm 230.0 W/m2 CLR
19:52 34.0 °C 14.5 °C 1012.8 hPa SSW 18.5 km/h 18.5 km/h 31 % 0.0 mm 213.0 W/m2 CLR
19:57 34.0 °C 14.5 °C 1013.1 hPa South 11.1 km/h 11.1 km/h 31 % 0.0 mm 197.0 W/m2 CLR
20:02 33.9 °C 14.4 °C 1013.1 hPa South 13.0 km/h 13.0 km/h 31 % 0.0 mm 181.0 W/m2 CLR
20:07 33.8 °C 15.3 °C 1013.1 hPa South 13.0 km/h 13.0 km/h 33 % 0.0 mm 163.0 W/m2 CLR
20:12 33.7 °C 14.7 °C 1013.1 hPa South 9.3 km/h 9.3 km/h 32 % 0.0 mm 144.0 W/m2 CLR
20:17 33.6 °C 14.7 °C 1013.1 hPa South 9.3 km/h 9.3 km/h 32 % 0.0 mm 128.0 W/m2 CLR
20:22 33.6 °C 15.1 °C 1013.1 hPa SE 9.3 km/h 9.3 km/h 33 % 0.0 mm 114.0 W/m2 CLR
20:27 33.4 °C 15.4 °C 1013.1 hPa Calm     34 % 0.0 mm 100.0 W/m2 CLR
20:32 33.3 °C 15.3 °C 1013.1 hPa South 14.8 km/h 14.8 km/h 34 % 0.0 mm 88.0 W/m2 CLR
20:37 33.2 °C 14.8 °C 1013.1 hPa Calm     33 % 0.0 mm 74.0 W/m2 FEW
20:42 33.2 °C 14.3 °C 1013.1 hPa SW 1.9 km/h   32 % 0.0 mm 63.0 W/m2 SCT
20:47 33.0 °C 13.6 °C 1013.1 hPa SSW 13.0 km/h 13.0 km/h 31 % 0.0 mm 33.0 W/m2 BKN
20:52 32.9 °C 13.5 °C 1013.1 hPa South 13.0 km/h 13.0 km/h 31 % 0.0 mm 40.0 W/m2 BKN
20:57 32.8 °C 13.5 °C 1013.1 hPa Calm     31 % 0.0 mm 32.0 W/m2 BKN
21:02 32.7 °C 13.4 °C 1013.1 hPa Calm     31 % 0.0 mm 23.0 W/m2 BKN
21:07 32.6 °C 13.8 °C 1013.1 hPa Calm     32 % 0.0 mm 18.0 W/m2 BKN
21:12 32.5 °C 14.2 °C 1013.1 hPa Calm     33 % 0.0 mm 14.0 W/m2 BKN
21:17 32.3 °C 14.0 °C 1013.1 hPa Calm     33 % 0.0 mm 12.0 W/m2 BKN
21:22 32.1 °C 13.8 °C 1013.1 hPa Calm     33 % 0.0 mm 11.0 W/m2 BKN
21:27 31.9 °C 14.1 °C 1013.4 hPa Calm     34 % 0.0 mm 9.0 W/m2 BKN
21:32 31.8 °C 14.0 °C 1013.4 hPa Calm     34 % 0.0 mm 5.0 W/m2 OVC
21:37 31.6 °C 14.2 °C 1013.4 hPa Calm     35 % 0.0 mm 0.0 W/m2 OVC
21:42 31.4 °C 14.1 °C 1013.4 hPa Calm     35 % 0.0 mm 0.0 W/m2 OVC
21:47 31.1 °C 15.1 °C 1013.4 hPa Calm     38 % 0.0 mm 0.0 W/m2 CLR
21:52 30.8 °C 15.6 °C 1013.4 hPa ESE 9.3 km/h 9.3 km/h 40 % 0.0 mm 0.0 W/m2 CLR
21:57 30.4 °C 16.1 °C 1013.8 hPa ESE 11.3 km/h 11.3 km/h 42 % 0.0 mm 0.0 W/m2 CLR
22:02 30.1 °C 15.8 °C 1013.8 hPa Calm     42 % 0.0 mm 0.0 W/m2 CLR
22:07 29.8 °C 15.9 °C 1013.8 hPa Calm     43 % 0.0 mm 0.0 W/m2 CLR
22:12 29.6 °C 16.0 °C 1013.8 hPa ESE 5.6 km/h   44 % 0.0 mm 0.0 W/m2 CLR
22:17 29.2 °C 16.1 °C 1014.1 hPa SE 9.3 km/h 9.3 km/h 45 % 0.0 mm 0.0 W/m2 CLR
22:22 28.9 °C 16.2 °C 1014.1 hPa SE 7.4 km/h 7.4 km/h 46 % 0.0 mm 0.0 W/m2 CLR
22:27 28.6 °C 15.8 °C 1014.1 hPa SE 14.8 km/h 14.8 km/h 46 % 0.0 mm 0.0 W/m2 CLR
22:32 28.5 °C 15.8 °C 1014.1 hPa Calm     46 % 0.0 mm 0.0 W/m2 CLR
22:37 28.4 °C 15.7 °C 1014.1 hPa Calm     46 % 0.0 mm 0.0 W/m2 CLR
22:38 28.4 °C 15.7 °C 1014.1 hPa Calm     46 % 0.0 mm 0.0 W/m2 CLR
22:43 28.5 °C 15.4 °C 1014.1 hPa Calm     45 % 0.0 mm 0.0 W/m2 CLR
22:48 28.5 °C 15.4 °C 1014.4 hPa Calm     45 % 0.0 mm 0.0 W/m2 CLR
22:53 28.4 °C 15.3 °C 1014.4 hPa SE 8.0 km/h 8.0 km/h 45 % 0.0 mm 0.0 W/m2 CLR
22:58 28.4 °C 15.3 °C 1014.4 hPa Calm     45 % 0.0 mm 0.0 W/m2 CLR
23:03 28.1 °C 15.4 °C 1014.4 hPa Calm     46 % 0.0 mm 0.0 W/m2 CLR
23:08 27.7 °C 15.1 °C 1014.4 hPa Calm     46 % 0.0 mm 0.0 W/m2 CLR
23:13 27.6 °C 14.9 °C 1014.4 hPa Calm     46 % 0.0 mm 0.0 W/m2 CLR
23:18 27.6 °C 14.9 °C 1014.8 hPa Calm     46 % 0.0 mm 0.0 W/m2 CLR
23:23 27.5 °C 14.8 °C 1014.8 hPa Calm     46 % 0.0 mm 0.0 W/m2 CLR
23:28 27.3 °C 14.7 °C 1014.4 hPa Calm     46 % 0.0 mm 0.0 W/m2 CLR
23:33 27.1 °C 14.5 °C 1014.4 hPa Calm     46 % 0.0 mm 0.0 W/m2 CLR
23:38 26.9 °C 14.3 °C 1014.4 hPa Calm     46 % 0.0 mm 0.0 W/m2 CLR
23:43 26.8 °C 14.2 °C 1014.4 hPa Calm     46 % 0.0 mm 0.0 W/m2 CLR
23:48 26.7 °C 14.2 °C 1014.4 hPa Calm     46 % 0.0 mm 0.0 W/m2 CLR
23:53 26.7 °C 14.2 °C 1014.8 hPa Calm     46 % 0.0 mm 0.0 W/m2 CLR
23:58 26.7 °C 14.7 °C 1014.8 hPa Calm     48 % 0.0 mm 0.0 W/m2 CLR
Lo Temps de Massalio
Compliments of Weather Underground - 1.25 mb